Flag for U.S.A. Weather past 2 weeks in Tempe, Arizona, U.S.A.

Now
103 °F

Scattered clouds.


Feels Like: 101 °F
Forecast: 87 / 104 °F
Wind: 10 mph from Northwest

Location: Phoenix Sky Harbor International Airport

Current Time: Jul 28, 2015 at 3:29:23 PM

Latest Report: Jul 28, 2015 at 1:51 PM


Visibility: 10 mi

Pressure: 29.75 "Hg

Humidity: 20%

Dew point: 54 °F

Location of TempeLocation

Historic Weather in Tempe — Graph

°F

Tempe temperature yesterday

Maximum temperature yesterday: 105 °F (at 3:51 PM)
Minimum temperature yesterday: 87 °F (at 4:51 AM)
Average temperature yesterday: 97 °F

Past Weeks' High & Low Weather Summary

 TemperatureHumidityPressure
High108 °F (Jul 14, 5:51 PM)88% (Jul 18, 9:51 PM)30.00 "Hg (Jul 18, 9:51 PM)
Low76 °F (Jul 18, 9:51 PM)5% (Jul 25, 5:51 PM)29.60 "Hg (Jul 14, 5:51 PM)
Average95 °F28%29.78 "Hg
* Reported Jul 13 1:51 PM — Jul 28 1:51 PM, Tempe, Weather by CustomWeather, © 2015

Note: Actual official high and low records may vary slightly from our data, if they occured in-between our weather recording intervals... More about our weather records

Advertising

Tempe weather history for previous 24 hours

 ConditionsComfort  
Time TempWeatherWind HumidityBarometerVisibility
1:51 PM
Tue, Jul 28
103 °FScattered clouds.N/A20%29.75 "Hg10 mi
12:51 PM100 °FPartly sunny.3 mph21%29.78 "Hg10 mi
11:51 AM99 °FBroken clouds.3 mph23%29.80 "Hg10 mi
10:51 AM96 °FBroken clouds.5 mph26%29.81 "Hg10 mi
9:51 AM95 °FPartly sunny.6 mph29%29.81 "Hg10 mi
8:51 AM94 °FBroken clouds.No wind30%29.82 "Hg10 mi
7:51 AM92 °FBroken clouds.6 mph32%29.81 "Hg10 mi
6:51 AM90 °FPartly sunny.No wind34%29.80 "Hg10 mi
5:51 AM88 °FPartly sunny.No wind38%29.78 "Hg10 mi
4:51 AM90 °FPassing clouds.8 mph34%29.75 "Hg10 mi
3:51 AM91 °FPassing clouds.10 mph33%29.74 "Hg10 mi
2:51 AM92 °FPassing clouds.13 mph33%29.73 "Hg10 mi
1:51 AM93 °FPassing clouds.12 mph30%29.72 "Hg10 mi
12:51 AM95 °FPassing clouds.13 mph27%29.71 "Hg10 mi
11:51 PM
Mon, Jul 27
97 °FPassing clouds.14 mph26%29.71 "Hg10 mi
10:51 PM98 °FPassing clouds.14 mph25%29.71 "Hg10 mi
9:51 PM101 °FPassing clouds.12 mph19%29.69 "Hg10 mi
8:51 PM102 °FClear.10 mph19%29.68 "Hg10 mi
7:51 PM103 °FPassing clouds.12 mph18%29.67 "Hg10 mi
6:51 PM104 °FPassing clouds.12 mph17%29.65 "Hg10 mi
5:51 PM105 °FPassing clouds.12 mph17%29.64 "Hg10 mi
4:51 PM104 °FPassing clouds.9 mph18%29.66 "Hg10 mi
3:51 PM105 °FPassing clouds.12 mph16%29.68 "Hg10 mi
Weather by CustomWeather, © 2015

See weather overviewHow to use our weather pages